Flag for Liechtenstein Weather past 2 weeks in Vaduz, Liechtenstein

Now
71 °F

Mild.


Feels Like: 77 °F
Forecast: 54 / 67 °F
Wind: 8 mph from South

Location: Vaduz

Current Time: May 5, 2015 at 7:16:28 AM

Latest Report: May 5, 2015 at 6:00 AM


Visibility: N/A

Pressure: 29.67 "Hg

Humidity: 36%

Dew point: 43 °F

Location of VaduzLocation

Historic Weather in Vaduz — Graph

°F

Vaduz temperature yesterday

Maximum temperature yesterday: 71 °F (at 5:00 PM)
Minimum temperature yesterday: 56 °F (at 6:00 AM)
Average temperature yesterday: 64 °F

Past Weeks' High & Low Weather Summary

 TemperatureHumidityPressure
High73 °F (May 5, 3:00 AM)97% (May 4, 6:00 AM)30.41 "Hg (May 4, 6:00 AM)
Low36 °F (Apr 29, 6:00 AM)19% (Apr 22, 4:00 PM)29.41 "Hg (Apr 27, 6:00 PM)
Average57 °F63%29.94 "Hg
* Reported Apr 20 6:00 AM — May 5 6:00 AM, Vaduz, Weather by CustomWeather, © 2015

Note: Actual official high and low records may vary slightly from our data, if they occured in-between our weather recording intervals... More about our weather records

Advertising

Vaduz weather history for previous 24 hours

 ConditionsComfort  
Time TempWeatherWind HumidityBarometerVisibility
6:00 AM
Tue, May 5
71 °FMild.8 mph36%29.67 "HgN/A
5:00 AM73 °FPassing clouds.12 mph35%29.68 "Hg16 mi
4:00 AM72 °FMild.12 mph37%29.70 "HgN/A
3:00 AM73 °FMild.12 mph36%29.68 "HgN/A
2:00 AM71 °FMild.12 mph40%29.70 "HgN/A
1:00 AM71 °FMild.13 mph42%29.71 "HgN/A
12:00 AM70 °FMild.6 mph44%29.74 "HgN/A
11:00 PM
Mon, May 4
69 °FOvercast.3 mph49%29.75 "Hg12 mi
10:00 PM69 °FMild.6 mph50%29.76 "HgN/A
9:00 PM66 °FMild.2 mph65%29.77 "HgN/A
8:00 PM67 °FOvercast.1 mph75%29.78 "Hg19 mi
7:00 PM69 °FMild.3 mph70%29.79 "HgN/A
6:00 PM69 °FMild.3 mph69%29.80 "HgN/A
5:00 PM71 °FOvercast.3 mph64%29.81 "Hg4 mi
4:00 PM69 °FMild.6 mph68%29.82 "HgN/A
3:00 PM68 °FMild.5 mph67%29.85 "HgN/A
2:00 PM67 °FOvercast.2 mph66%29.85 "Hg5 mi
1:00 PM67 °FMild.3 mph70%29.86 "HgN/A
12:00 PM64 °FMild.5 mph70%29.88 "HgN/A
11:00 AM61 °FOvercast.6 mph80%29.90 "Hg4 mi
10:00 AM62 °FCool.6 mph84%29.90 "HgN/A
9:00 AM59 °FCool.5 mph87%29.93 "HgN/A
8:00 AM58 °FRain. Overcast.1 mph91%29.94 "Hg2 mi
7:00 AM57 °FCool.3 mph94%29.92 "HgN/A
Weather by CustomWeather, © 2015

See weather overviewHow to use our weather pages